Weather History for Coeur d'Alene, ID

Change the Weather History Date:

Thursday, March 7, 2013

  Actual Average Record
Temperature  
Mean Temperature 35 °F -  
Max Temperature 42 °F 42 °F 62 °F (2005)
Min Temperature 28 °F 26 °F 12 °F (2002)
Degree Days  
Heating Degree Days 30    
Moisture  
Dew Point 34 °F    
Average Humidity 93    
Maximum Humidity 100    
Minimum Humidity 70    
Precipitation  
Precipitation 0.26 in - - ()
Sea Level Pressure  
Sea Level Pressure 29.99 in    
Wind  
Wind Speed 9 mph (SSE)    
Max Wind Speed 13 mph    
Max Gust Speed -    
Visibility 8 miles    
Events      
Averages and records for this station are not official NWS values.
T = Trace of Precipitation, MM = Missing Value Source: NWS Daily Summary

Daily Weather History Graph

Daily Weather History Graph

Search for Another Location

Airport:

Trip Planner

Search our weather history database for the weather conditions in past years. The results will help you decide how hot, cold, wet, or windy it might be!

Date:

Astronomy

Mar. 07, 2013 Rise Set
Actual Time 6:15 AM PST 5:41 PM PST
Civil Twilight 5:44 AM PST 6:12 PM PST
Nautical Twilight 5:09 AM PST 6:48 PM PST
Astronomical Twilight 4:32 AM PST 7:24 PM PST
Moon 3:34 AM PST (3/7) 1:19 PM PST (3/7)
Length of Visible Light 12h 27m
Length of Day
11h 25m
Waning Crescent, 19% of the Moon is Illuminated
Mar 7
Waning Crescent
Mar 11
New
Mar 19
First Quarter
Mar 27
Full
Apr 2
Last Quarter

Hourly Weather History & Observations

Time (PST) Temp. Windchill Dew Point Humidity Pressure Visibility Wind Dir Wind Speed Gust Speed Precip Events Conditions
12:15 AM 33.8 °F 26.4 °F 33.8 °F 100% 29.84 in 10.0 mi South 9.2 mph - N/A   Overcast
12:35 AM 33.8 °F 25.8 °F 33.8 °F 100% 29.85 in 10.0 mi South 10.4 mph - N/A   Overcast
12:55 AM 33.8 °F 25.3 °F 33.8 °F 100% 29.85 in 10.0 mi South 11.5 mph - N/A   Overcast
1:15 AM 33.8 °F 25.8 °F 33.8 °F 100% 29.86 in 10.0 mi South 10.4 mph - 0.01 in   Overcast
1:35 AM 33.8 °F 24.8 °F 33.8 °F 100% 29.87 in 5.0 mi South 12.7 mph - 0.03 in   Overcast
1:55 AM 33.8 °F 26.4 °F 33.8 °F 100% 29.87 in 3.0 mi SSE 9.2 mph - 0.04 in   Overcast
2:15 AM 33.8 °F 26.4 °F 32.0 °F 93% 29.88 in 4.0 mi South 9.2 mph - 0.01 in   Overcast
2:35 AM 33.8 °F 25.8 °F 30.2 °F 87% 29.88 in 5.0 mi South 10.4 mph - 0.03 in   Overcast
2:55 AM 33.8 °F 26.4 °F 33.8 °F 100% 29.88 in 5.0 mi South 9.2 mph - 0.04 in   Overcast
3:15 AM 33.8 °F 25.8 °F 33.8 °F 100% 29.89 in 7.0 mi South 10.4 mph - 0.01 in   Overcast
3:35 AM 33.8 °F 25.3 °F 33.8 °F 100% 29.89 in 10.0 mi South 11.5 mph - 0.02 in   Overcast
3:55 AM 33.8 °F 25.3 °F 33.8 °F 100% 29.90 in 10.0 mi South 11.5 mph - 0.03 in   Overcast
4:15 AM 33.8 °F 25.8 °F 33.8 °F 100% 29.91 in 10.0 mi South 10.4 mph - N/A   Overcast
4:35 AM 33.8 °F 25.3 °F 33.8 °F 100% 29.91 in 10.0 mi South 11.5 mph - 0.01 in   Overcast
4:55 AM 33.8 °F 25.8 °F 33.8 °F 100% 29.92 in 9.0 mi South 10.4 mph - 0.02 in   Overcast
5:15 AM 33.8 °F 25.3 °F 33.8 °F 100% 29.93 in 10.0 mi South 11.5 mph - 0.01 in   Overcast
5:35 AM 33.8 °F 25.3 °F 33.8 °F 100% 29.93 in 8.0 mi South 11.5 mph - 0.02 in   Overcast
5:55 AM 33.8 °F 25.8 °F 33.8 °F 100% 29.94 in 7.0 mi South 10.4 mph - 0.03 in   Overcast
6:15 AM 33.8 °F 26.4 °F 33.8 °F 100% 29.95 in 5.0 mi South 9.2 mph - 0.02 in   Overcast
6:35 AM 33.8 °F 26.4 °F 33.8 °F 100% 29.96 in 3.0 mi South 9.2 mph - 0.04 in   Overcast
6:55 AM 33.8 °F 25.8 °F 32.0 °F 93% 29.96 in 3.0 mi South 10.4 mph - 0.05 in   Overcast
7:15 AM 33.8 °F 26.4 °F 33.8 °F 100% 29.97 in 2.5 mi South 9.2 mph - 0.01 in   Overcast
7:35 AM 33.8 °F 26.4 °F 33.8 °F 100% 29.98 in 3.0 mi South 9.2 mph - 0.03 in   Overcast
7:55 AM 33.8 °F 26.4 °F 33.8 °F 100% 29.99 in 2.5 mi South 9.2 mph - 0.04 in   Overcast
8:15 AM 33.8 °F 26.4 °F 33.8 °F 100% 29.99 in 3.0 mi South 9.2 mph - N/A   Unknown
8:35 AM 33.8 °F 26.4 °F 33.8 °F 100% 30.00 in 6.0 mi South 9.2 mph - N/A   Overcast
8:55 AM 33.8 °F 27.0 °F 33.8 °F 100% 30.00 in 10.0 mi South 8.1 mph - N/A   Overcast
9:15 AM 33.8 °F 26.4 °F 33.8 °F 100% 30.01 in 9.0 mi South 9.2 mph - N/A   Overcast
9:35 AM 35.6 °F 28.0 °F 35.6 °F 100% 30.02 in 8.0 mi South 10.4 mph - N/A   Overcast
9:55 AM 35.6 °F 28.6 °F 35.6 °F 100% 30.03 in 6.0 mi South 9.2 mph - 0.01 in   Overcast
10:15 AM 35.6 °F 28.6 °F - N/A% 30.04 in 10.0 mi South 9.2 mph - N/A   Overcast
10:35 AM 35.6 °F 28.0 °F 35.6 °F 100% 30.04 in 10.0 mi South 10.4 mph - N/A   Overcast
10:55 AM 37.4 °F 30.8 °F 37.4 °F 100% 30.04 in 10.0 mi South 9.2 mph - N/A   Overcast
11:15 AM 37.4 °F 30.3 °F 37.4 °F 100% 30.04 in 10.0 mi South 10.4 mph - N/A   Overcast
11:35 AM 39.2 °F 32.5 °F 39.2 °F 100% 30.04 in 10.0 mi South 10.4 mph - N/A   Overcast
11:55 AM 39.2 °F 32.5 °F 39.2 °F 100% 30.04 in 10.0 mi South 10.4 mph - N/A   Overcast
12:15 PM 41.0 °F 34.7 °F 41.0 °F 100% 30.04 in 10.0 mi South 10.4 mph - N/A   Overcast
12:35 PM 41.0 °F 35.2 °F 41.0 °F 100% 30.04 in 10.0 mi South 9.2 mph - N/A   Overcast
12:55 PM 42.8 °F 37.5 °F 42.8 °F 100% 30.04 in 10.0 mi South 9.2 mph - N/A   Overcast
1:15 PM 41.0 °F 35.8 °F 35.6 °F 81% 30.03 in 10.0 mi SSE 8.1 mph - N/A   Overcast
1:35 PM 42.8 °F 37.5 °F 35.6 °F 76% 30.03 in 10.0 mi SE 9.2 mph - N/A   Overcast
1:55 PM 41.0 °F 36.4 °F 33.8 °F 76% 30.03 in 10.0 mi SSE 6.9 mph - N/A   Overcast
2:15 PM 41.0 °F 37.1 °F 33.8 °F 76% 30.03 in 10.0 mi SE 5.8 mph - N/A   Overcast
2:35 PM 42.8 °F 38.6 °F 33.8 °F 70% 30.04 in 10.0 mi South 6.9 mph - N/A   Overcast
2:55 PM 41.0 °F 35.8 °F 33.8 °F 76% 30.04 in 10.0 mi SSE 8.1 mph - N/A   Overcast
3:15 PM 41.0 °F 35.8 °F 33.8 °F 76% 30.04 in 10.0 mi SSE 8.1 mph - N/A   Overcast
3:35 PM 41.0 °F 35.8 °F 33.8 °F 76% 30.03 in 10.0 mi SE 8.1 mph - N/A   Overcast
3:55 PM 41.0 °F 35.2 °F 33.8 °F 76% 30.03 in 10.0 mi SSE 9.2 mph - N/A   Overcast
4:15 PM 41.0 °F 38.0 °F 33.8 °F 76% 30.03 in 10.0 mi SSE 4.6 mph - N/A   Overcast
4:35 PM 42.8 °F 38.6 °F 33.8 °F 70% 30.03 in 10.0 mi South 6.9 mph - N/A   Overcast
4:55 PM 42.8 °F 40.1 °F 33.8 °F 70% 30.03 in 10.0 mi SE 4.6 mph - N/A   Overcast
5:15 PM 41.0 °F 39.0 °F 35.6 °F 81% 30.03 in 10.0 mi North 3.5 mph - N/A   Overcast
5:35 PM 37.4 °F 33.8 °F 33.8 °F 87% 30.04 in 10.0 mi North 4.6 mph - N/A   Overcast
5:55 PM 37.4 °F 32.8 °F 33.8 °F 87% 30.04 in 10.0 mi NNE 5.8 mph - N/A   Overcast
6:15 PM 37.4 °F 32.8 °F 33.8 °F 87% 30.04 in 10.0 mi NNE 5.8 mph - N/A   Overcast
6:35 PM 35.6 °F 30.7 °F 35.6 °F 100% 30.04 in 10.0 mi NE 5.8 mph - N/A   Overcast
6:55 PM 35.6 °F 31.7 °F 33.8 °F 93% 30.04 in 10.0 mi NE 4.6 mph - N/A   Overcast
7:15 PM 33.8 °F - 32.0 °F 93% 30.05 in 10.0 mi Calm Calm - N/A   Overcast
7:35 PM 35.6 °F 32.8 °F 33.8 °F 93% 30.05 in 10.0 mi NE 3.5 mph - N/A   Overcast
7:55 PM 33.8 °F 30.8 °F 32.0 °F 93% 30.05 in 10.0 mi NE 3.5 mph - N/A   Scattered Clouds
8:15 PM 33.8 °F 29.6 °F 32.0 °F 93% 30.05 in 10.0 mi ENE 4.6 mph - N/A   Partly Cloudy
8:35 PM 32.0 °F 27.5 °F 30.2 °F 93% 30.05 in 10.0 mi ENE 4.6 mph - N/A   Mostly Cloudy
8:55 PM 32.0 °F 26.4 °F 30.2 °F 93% 30.05 in 10.0 mi East 5.8 mph - N/A   Partly Cloudy
9:15 PM 30.2 °F 24.3 °F 30.2 °F 100% 30.06 in 10.0 mi East 5.8 mph - N/A   Clear
9:35 PM 30.2 °F 24.3 °F 30.2 °F 100% 30.05 in 10.0 mi East 5.8 mph - N/A   Clear
9:55 PM 30.2 °F 24.3 °F 28.4 °F 93% 30.05 in 10.0 mi ENE 5.8 mph - N/A   Clear
10:15 PM 30.2 °F 24.3 °F 28.4 °F 93% 30.05 in 10.0 mi East 5.8 mph - N/A   Clear
10:35 PM 30.2 °F 24.3 °F 28.4 °F 93% 30.05 in 10.0 mi ESE 5.8 mph - N/A   Clear
10:55 PM 30.2 °F 24.3 °F 26.6 °F 86% 30.05 in 0.5 mi SE 5.8 mph - N/A   Overcast
11:15 PM 30.2 °F 24.3 °F 28.4 °F 93% 30.05 in 0.5 mi SE 5.8 mph - N/A   Overcast
11:35 PM 28.4 °F 22.2 °F 26.6 °F 93% 30.05 in 0.8 mi SE 5.8 mph - N/A   Overcast
11:55 PM 28.4 °F 22.2 °F 26.6 °F 93% 30.04 in 0.2 mi SE 5.8 mph - N/A   Overcast